Regional Weather Roundup
Issued by NWS

Home | Current Version | Previous Version | Text Only | Print | Product List | Glossary On
Versions: 1 2 3 4 5 6 7 8 9 10 11 12 13 14 15 16 17 18 19 20 21 22 23 24 25 26 27 28 29 30 31 32 33 34 35 36 37 38 39 40 41 42 43 44 45 46 47 48 49 50
000
ASHW40 PHFO 290630
RWRHI

WEATHER ROUNDUP FOR HAWAII
NATIONAL WEATHER SERVICE HONOLULU HI
800 PM HST THU MAY 28 2015

THIS IS AN AUTOMATED REPORT THAT HAS NOT BEEN QUALITY CONTROLLED.

NOTE..."FAIR" INDICATES FEW OR NO CLOUDS BELOW 12,000 FEET WITH NO
SIGNIFICANT WEATHER AND/OR OBSTRUCTIONS TO VISIBILITY.

* - THESE SITES REPORT LIMITED FIELDS

HIZ001>004-290700-
KAUAI-NIIHAU-

CITY           SKY/WX    TMP DP  RH WIND       PRES   REMARKS
LIHUE APT      CLOUDY    73  62  68 N8        30.02R
PORT ALLEN*    NOT AVBL
POIPU*           N/A     73 N/A N/A N6G12       N/A
PRINCEVILLE*     N/A     70 N/A N/A MISG        N/A
KOKOLE POINT*  NOT AVBL
MOLOAA DAIRY*  NOT AVBL
WAIMEA HTS*    NOT AVBL
PUU OPAE*      NOT AVBL
PUU LUA*       NOT AVBL
MAKAHA RIDGE*    N/A     64  61  88 NE3         N/A
$$

HIZ005>011-290700-
OAHU-

CITY           SKY/WX    TMP DP  RH WIND       PRES   REMARKS
HONOLULU       MOCLDY    75  65  70 NE7       29.99R
KALAELOA       CLOUDY    73  65  75 VRB5      30.00R
KANEOHE MCB    CLOUDY    75  64  68 N9        29.98R
WHEELER FIELD  MOCLDY    70  64  82 NW6       30.00R
BELLOWS*         N/A    N/A N/A N/A N9G17       N/A
KAHUKU*          N/A    N/A N/A N/A NE2         N/A
WHEELER*       NOT AVBL
WAIANAE HARBOR NOT AVBL
DILLINGHAM*      N/A     73  63  68 MISG        N/A
KAHUKU TRN*      N/A     72  64  78 E3G9        N/A
KAWAILOA*        N/A     66  61  82 E6G12       N/A
KII*             N/A     75  64  69 NE8         N/A
MAKUA RANGE*     N/A     73  64  73 E9G15       N/A
OAHU FOREST NW NOT AVBL
SCHOFIELD BRK*   N/A     68  64  88 MISG        N/A
SCHOFIELD S*   NOT AVBL
WAIANAE VLY*   NOT AVBL
KUAOKALA*      NOT AVBL
HONOULIUULI*   NOT AVBL
MOKUOLOE IS*     N/A    N/A N/A N/A MISG        N/A
PALEHUA*       NOT AVBL
WAIAWA PHB*    NOT AVBL
$$

HIZ012>013-290700-
MOLOKAI-

CITY           SKY/WX    TMP DP  RH WIND       PRES   REMARKS
MOLOKAI AIRPT  CLOUDY    72  67  84 N6        30.01R
KALAUPAPA      NOT AVBL
MAKAPULAPAI*   NOT AVBL
MOLOKAI 1*     NOT AVBL
PUU ALII*        N/A     60  60 100 CALM        N/A
$$

HIZ016-290700-
KAHOOLAWE-

CITY           SKY/WX    TMP DP  RH WIND       PRES   REMARKS
KAHOOLAWE*     NOT AVBL
HAKIOAWA*        N/A     71  69  93 MISG      30.42R
HONOKANAIA*      N/A     77  67  72 NW6         N/A
KANELOA*         N/A     73  68  83 NE6       30.04R
KEALIALALO*      N/A     73  68  83 NE5G12      N/A
LUA MAKIKA*    NOT AVBL
$$

HIZ014>015-290700-
LANAI-

CITY           SKY/WX    TMP DP  RH WIND       PRES   REMARKS
LANAI CITY     CLOUDY    69  66  90 E5        30.04R
LANAI 1*       NOT AVBL
$$

HIZ017>028-290700-
MAUI-

CITY           SKY/WX    TMP DP  RH WIND       PRES   REMARKS
KAHULUI        MOCLDY    76  68  76 NE3       29.99R
KAPALUA-W MAUI NOT AVBL
HANA AIRPORT   CLOUDY    72  68  88 CALM      30.02S
HANA*            N/A     72 N/A N/A W2          N/A
HALEAKALA SUMM   N/A     46  28  49 SW10        N/A
MAALAEA BAY*   NOT AVBL
HALEAKALA*     NOT AVBL
KAUPO GAP*     NOT AVBL
KULA 1*          N/A     52  52 100 SE3         N/A
$$

HIZ023>026-290700-
BIG ISLAND OF HAWAII COAST AND LOWER SLOPES-

CITY           SKY/WX    TMP DP  RH WIND       PRES   REMARKS
KAILUA KONA    CLEAR     79  67  66 N7        29.96R
HILO           CLOUDY    73  70  90 CALM      29.99R
HONOKAA*       NOT AVBL
KAWAIHAE MWT*    N/A     82 N/A N/A S5          N/A
KAWAIHAE*        N/A     81 N/A N/A S6          N/A
SOUTH POINT*     N/A     73 N/A N/A SW9         N/A
UPOLU AIRPORT*   N/A    N/A N/A N/A E8          N/A
KAMUELA*       CLOUDY    66  63  88 CALM      30.09S
HAKALAU*         N/A     56  56 100 E2          N/A
KALOKO-HONOKO*   N/A     79  64  61 NE2G8     29.96R
PALI 2*          N/A     64  64 100 SE1G8       N/A
KEALAKOMO*       N/A     75  68  78 S3          N/A
KAUPULEHU*     NOT AVBL
KAPAPALA*        N/A     69  68  96 S3          N/A
LOWER KAHUKU*    N/A     64  63  94 W1          N/A
PUHE CS*         N/A     81  66  61 S3          N/A
PUHO CS*         N/A     77  66  69 NW2         N/A
PTA KEAMUKU*     N/A     63  59  88 CALM        N/A
WAIKOLOA*      NOT AVBL
$$

HIZ027>028-290700-
BIG ISLAND OF HAWAII INTERIOR AND SUMMMITS-

CITY           SKY/WX    TMP DP  RH WIND       PRES   REMARKS
BRADSHAW FIELD CLEAR     56  49  79 S1        30.30R
MK VISITOR CEN NOT AVBL
MAUNA KEA*       N/A     36   0  21 NW51        N/A  WCI  19
MAUNA LOA*       N/A     50 -15   6 MISG        N/A
MAUNA LOA 1*   NOT AVBL
PTA KIPUKA*      N/A     59  57  94 VRB3G9      N/A
PTA RANGE 17*    N/A     57  55  94 W3G9        N/A
PTA WEST*        N/A    N/A N/A N/A NW5         N/A
NENE CABIN*      N/A     55  41  58 W3G12       N/A
AHUMOA*        NOT AVBL
PTA PORTABLE*  NOT AVBL
PUU MALI*        N/A     52  52 100 SE2         N/A
$$

HIC003-290700-
NORTHWEST ISLANDS-

CITY           SKY/WX    TMP DP  RH WIND       PRES   REMARKS
MIDWAY ISLAND  CLEAR    N/A N/A N/A NE10      30.20R
MIDWAY NOS*    NOT AVBL
FRENCH FRIGATE NOT AVBL
$$

PHZ110>124-180-290700-
BUOY REPORTS

STATION/POSITION TIME  TEMP    WIND        PRES    WAVE   SWELL
                       AIR SEA DIR/SP/G            HT/PER HT/DIR
                 (UTC) (F)     (DEG/KT/KT) (MB)    (FT/S) (FT/D)
BUOY 51001       NOT AVBL
BUOY 51101       0600   73 75   40/ 10/ 14 1016.8R   4/ 8   3/ 40
BUOY 51100       NOT AVBL
BUOY 51002       0600   80 83   90/  4/  6 1014.9R   4/15   5/180
BUOY 51003       0600   78 80   50/  6/  8 1015.2R   5/11   5
BUOY 51004       0501   79 80  170/  6/  6 1015.2    4/ 8   3/ 70
BARBERS PT BUOY  NOT AVBL
WAIMEA BAY BUOY  0600      77                N/A     4/ 8   2/340
KAILUA BAY BUOY  0600      77                N/A     4/10   2/ 10
LANAI BUOY       NOT AVBL
BARBERS PT 2     0600      77                N/A     3/13   2/190
PAUWELA MAUI     0600      77                N/A     4/ 8   2/340
HILO             0600      78                N/A     5/ 9   2/340
KANEOHE BAY BUOY 0600      77                N/A     4/ 8   2/350
HANALEI KAUAI    0600      78                N/A     3/ 8
KAHULUI HARBOR   0600   75 79  330/  9/ 12 1015.4R
HONOLULU HARBOR  0600   75 77   70/  5/ 14 1015.6R
KILO NALU        NOT AVBL
HILO HARBOR      0600   72 76  210/  3/  4 1015.2R
MOKUOLOE         0600      79              1015.9S
NAWILIWILI       0600   73 80  360/  5/  6 1016.3R
WHOTS BUOY       NOT AVBL
BUOY 51028       NOT AVBL
$$

......................KEY........................................
  SKY/WX - SKY CONDITIONS/PRESENT WEATHER
  TMP    - TEMPERATURE IN FAHRENHEIT
  DWPT   - DEWPOINT IN FAHRENHEIT
  RH     - RELATIVE HUMIDITY IN PERCENT
  WIND   - DIRECTION AND SPEED /MPH FOR ISLANDS...KTS FOR BUOYS/
  PRES   - MEAN SEA LEVEL PRESSURE IN INCHES OF HG
  VSB    - VISIBILITY IN MILES
  HX     - HEAT INDEX
  WCI    - WIND CHILL INDEX
  VRB    - VARIABLE WIND DIRECTION
  N/A    - NOT AVAILABLE



USA.gov is the U.S. government's official web portal to all federal, state and local government web resources and services.